Weather Roundup
Issued by NWS

Home | Current Version | Previous Version | Graphics & Text | Print | Product List | Glossary Off
Versions: 1 2 3 4 5 6 7 8 9 10 11 12 13 14 15 16 17 18 19 20 21 22 23 24 25 26 27 28 29 30 31 32 33 34 35 36 37 38 39 40 41 42 43 44 45 46 47 48 49 50

487
NZUS93 KARX 110310
HRRWXR

CURRENT HOURLY OBSERVATIONS ACROSS
MUCH OF THE UPPER MISSISSIPPI VALLEY
NATIONAL WEATHER SERVICE LA CROSSE WI
900 PM CST WED FEB 10 2016


...SOUTHEAST MINNESOTA...


CITY           SKY/WX    TMP DP  RH WIND       PRES   REMARKS
ROCHESTER      CLOUDY     6  -3  66 N7        30.18R WCI  -6
ROCHESTER/MAYO CLOUDY     7  -2  65 NW6       30.20R WCI  -3
WINONA         CLOUDY    10   1  67 N3        30.24R
AUSTIN         CLOUDY     7   0  72 N5        30.18R WCI  -2
ALBERT LEA     CLOUDY     9   0  66 CALM      30.19R
DODGE CENTER   CLOUDY     5  -2  72 N8        30.18R WCI  -8
PRESTON        CLOUDY     5  -4  66 N6        30.18R WCI  -5
OWATONNA       CLOUDY     9  -2  61 NE5       30.20R WCI   0
FARIBAULT        N/A      9  -2  61 CALM      30.22R
$$

...ELSEWHERE IN MINNESOTA...


CITY           SKY/WX    TMP DP  RH WIND       PRES   REMARKS
MINNEAPOLIS    CLOUDY    11  -2  56 N5        30.24R WCI   3
INTNL FALLS    CLEAR    -19 -23  81 NW5       30.22S WCI -32
DULUTH         CLEAR      1 -10  60 N14       30.15S WCI -17
RED WING       CLOUDY     9  -4  56 CALM      30.23R
REDWOOD FALLS  CLOUDY    13   3  64 CALM      30.23S
MANKATO        CLOUDY    10   1  67 N6        30.22R WCI   1
WORTHINGTON    CLOUDY    10   3  72 NE10      30.18S WCI  -3
FAIRMONT       CLOUDY     9   1  72 NW5       30.19S WCI   0
$$

...SOUTHWEST WISCONSIN...


CITY           SKY/WX    TMP DP  RH WIND       PRES   REMARKS
LA CROSSE      CLOUDY     7  -3  64 N8        30.22R WCI  -6
PRAIRIE DU CHI CLOUDY    12  -1  56 NW6       30.21R WCI   2
BOSCOBEL       CLOUDY     6  -2  69 CALM      30.21R
LONE ROCK      MOCLDY     4  -3  73 CALM      30.19R
PLATTEVILLE    CLOUDY    10   0  65 N5        30.15R WCI   1
FORT MC COY    CLOUDY     1  -4  79 CALM      30.20R
CAMP DOUGLAS   MOCLDY     0  -4  85 W6        30.16R WCI -12
VIROQUA        MOCLDY     2  -6  71 NW5       30.14R WCI  -8
WIS DELLS      CLEAR      6  -4  64 NW3       30.14R
$$

...ELSEWHERE IN WISCONSIN...


CITY           SKY/WX    TMP DP  RH WIND       PRES   REMARKS
MILWAUKEE      PTCLDY    10  -2  58 NW6       30.13S WCI   0
MADISON        CLEAR      6  -3  66 NW6       30.15R WCI  -4
GREEN BAY      CLEAR      3  -7  63 N6        30.13R WCI  -8
EAU CLAIRE     CLOUDY     7  -5  57 NW3       30.20R
BLACK RVR FLS  FAIR       8  -4  59 NW5       30.19R WCI  -1
MEDFORD        CLEAR      2  -5  73 N6        30.11R WCI  -9
WAUSAU         PTCLDY     6  -4  63 NW7       30.12R WCI  -6
WIS RAPIDS     CLEAR      4  -6  63 NW6       30.16R WCI  -7
MARSHFIELD     CLOUDY     2  -8  63 NW8       30.12R WCI -12
RICE LAKE      CLOUDY     6  -4  64 NW3       30.21R
$$

...NORTHEAST IOWA...


CITY           SKY/WX    TMP DP  RH WIND       PRES   REMARKS
WATERLOO       CLOUDY     9   0  67 N8        30.19R WCI  -3
DUBUQUE        CLOUDY    10   0  63 N6        30.15R WCI   0
DECORAH        CLOUDY     7  -2  66 N9        30.17R WCI  -7
MASON CITY     CLOUDY     6   0  76 N7        30.20R WCI  -6
CHARLES CITY   CLOUDY     7  -2  66 N7        30.20R WCI  -5
OELWEIN        CLOUDY     7   1  78 NW7       30.19R WCI  -5
$$

...ELSEWHERE IN IOWA...


CITY           SKY/WX    TMP DP  RH WIND       PRES   REMARKS
DES MOINES     CLOUDY    18  11  74 NE10      30.16R WCI   6
IOWA CITY      CLOUDY    16   4  59 N8        30.20R WCI   5
FORT DODGE     CLOUDY    12   3  67 NE6       30.20R WCI   3
MARSHALLTOWN   CLOUDY    14   4  64 N8        30.17R WCI   3
CEDAR RAPIDS   CLOUDY    12   3  67 N8        30.16R WCI   0
$$

...NORTHERN ILLINOIS...


CITY           SKY/WX    TMP DP  RH WIND       PRES   REMARKS
CHICAGO-OHARE  PTCLDY    12   0  58 N6        30.14R WCI   3
CHICAGO-MIDWAY PTCLDY    14   0  53 NW12      30.15R WCI   0
MOLINE         CLEAR     15   2  56 NW3       30.18R
ROCKFORD       PTCLDY    12   1  61 NW3       30.18R
PEORIA         CLOUDY    16   6  65 CALM      30.17R
$$

NOTE: "FAIR" INDICATES FEW OR NO CLOUDS BELOW 12,000 FEET WITH NO
SIGNIFICANT WEATHER AND/OR OBSTRUCTIONS TO VISIBILITY. WIND
SPEEDS ARE IN MILES-PER-HOUR.




USA.gov is the U.S. government's official web portal to all federal, state and local government web resources and services.